Time,TemperatureF,DewpointF,PressureIn,WindDirection,WindDirectionDegrees,WindSpeedMPH,WindSpeedGustMPH,Humidity,HourlyPrecipIn,Conditions,Clouds,dailyrainin,SoftwareType,DateUTC
2013-12-11 09:01:00,51.5,10.0,30.25,NE,43,4.0,-999.0,19,-99.99,,,0.00,weatherlink.com 1.10,2013-12-11 17:01:00,
2013-12-11 09:04:00,51.6,10.0,30.25,NE,43,4.0,-999.0,19,-99.99,,,0.00,weatherlink.com 1.10,2013-12-11 17:04:00,
2013-12-11 09:18:00,51.6,10.0,30.25,NE,43,4.0,-999.0,19,-99.99,,,0.00,weatherlink.com 1.10,2013-12-11 17:18:00,
2013-12-11 09:48:00,52.7,11.0,30.26,NE,44,3.0,-999.0,19,-99.99,,,0.00,weatherlink.com 1.10,2013-12-11 17:48:00,
2013-12-11 10:09:00,53.3,11.0,30.26,NE,44,3.0,-999.0,18,-99.99,,,0.00,weatherlink.com 1.10,2013-12-11 18:09:00,
2013-12-11 10:19:00,53.8,10.0,30.26,NE,44,3.0,-999.0,17,-99.99,,,0.00,weatherlink.com 1.10,2013-12-11 18:19:00,
2013-12-11 10:33:00,54.1,10.0,30.25,NE,44,3.0,-999.0,17,-99.99,,,0.00,weatherlink.com 1.10,2013-12-11 18:33:00,
2013-12-11 10:48:00,54.8,11.0,30.26,NE,44,0.0,-999.0,17,-99.99,,,0.00,weatherlink.com 1.10,2013-12-11 18:48:00,
2013-12-11 11:05:00,55.4,11.0,30.25,NE,43,1.0,-999.0,17,-99.99,,,0.00,weatherlink.com 1.10,2013-12-11 19:05:00,
2013-12-11 11:18:00,55.8,10.0,30.24,NE,38,0.0,-999.0,16,-99.99,,,0.00,weatherlink.com 1.10,2013-12-11 19:18:00,
2013-12-11 11:33:00,56.7,12.0,30.25,NE,38,0.0,-999.0,17,-99.99,,,0.00,weatherlink.com 1.10,2013-12-11 19:33:00,
2013-12-11 11:48:00,56.8,12.0,30.24,NE,35,0.0,-999.0,17,-99.99,,,0.00,weatherlink.com 1.10,2013-12-11 19:48:00,
2013-12-11 12:04:00,57.8,12.0,30.23,NE,35,0.0,-999.0,16,-99.99,,,0.00,weatherlink.com 1.10,2013-12-11 20:04:00,
2013-12-11 12:20:00,58.6,12.0,30.23,NE,35,0.0,-999.0,16,-99.99,,,0.00,weatherlink.com 1.10,2013-12-11 20:20:00,
2013-12-11 12:33:00,58.9,11.0,30.23,NE,35,0.0,-999.0,15,-99.99,,,0.00,weatherlink.com 1.10,2013-12-11 20:33:00,
2013-12-11 12:52:00,59.6,12.0,30.22,NE,35,0.0,-999.0,15,-99.99,,,0.00,weatherlink.com 1.10,2013-12-11 20:52:00,
2013-12-11 13:04:00,59.7,12.0,30.21,NE,35,0.0,-999.0,15,-99.99,,,0.00,weatherlink.com 1.10,2013-12-11 21:04:00,
2013-12-11 13:54:00,60.9,13.0,30.20,NE,36,0.0,-999.0,15,-99.99,,,0.00,weatherlink.com 1.10,2013-12-11 21:54:00,
2013-12-11 14:03:00,61.3,13.0,30.20,NE,38,0.0,-999.0,15,-99.99,,,0.00,weatherlink.com 1.10,2013-12-11 22:03:00,
2013-12-11 14:22:00,61.4,12.0,30.20,NE,38,0.0,-999.0,14,-99.99,,,0.00,weatherlink.com 1.10,2013-12-11 22:22:00,
2013-12-11 15:13:00,60.1,14.0,30.20,NE,38,0.0,-999.0,16,-99.99,,,0.00,weatherlink.com 1.10,2013-12-11 23:13:00,
2013-12-11 15:51:00,58.5,12.0,30.20,NE,37,2.0,-999.0,16,-99.99,,,0.00,weatherlink.com 1.10,2013-12-11 23:51:00,
2013-12-11 16:02:00,57.6,13.0,30.20,NE,37,1.0,-999.0,17,-99.99,,,0.00,weatherlink.com 1.10,2013-12-12 00:02:00,
2013-12-11 16:23:00,56.0,12.0,30.21,NE,37,0.0,-999.0,17,-99.99,,,0.00,weatherlink.com 1.10,2013-12-12 00:23:00,
2013-12-11 16:32:00,55.5,11.0,30.21,NE,37,0.0,-999.0,17,-99.99,,,0.00,weatherlink.com 1.10,2013-12-12 00:32:00,
2013-12-11 16:50:00,54.9,12.0,30.21,NE,37,0.0,-999.0,18,-99.99,,,0.00,weatherlink.com 1.10,2013-12-12 00:50:00,
2013-12-11 17:06:00,54.4,11.0,30.21,NE,37,1.0,-999.0,18,-99.99,,,0.00,weatherlink.com 1.10,2013-12-12 01:06:00,
2013-12-11 17:20:00,54.2,11.0,30.21,NE,37,2.0,-999.0,18,-99.99,,,0.00,weatherlink.com 1.10,2013-12-12 01:20:00,
2013-12-11 17:33:00,53.9,11.0,30.22,NE,37,3.0,-999.0,18,-99.99,,,0.00,weatherlink.com 1.10,2013-12-12 01:33:00,
2013-12-11 17:50:00,53.8,11.0,30.22,NE,40,4.0,-999.0,18,-99.99,,,0.00,weatherlink.com 1.10,2013-12-12 01:50:00,
2013-12-11 18:38:00,52.7,11.0,30.23,NE,39,4.0,-999.0,19,-99.99,,,0.00,weatherlink.com 1.10,2013-12-12 02:38:00,
2013-12-11 20:19:00,52.8,11.0,30.24,NE,44,5.0,-999.0,19,-99.99,,,0.00,weatherlink.com 1.10,2013-12-12 04:19:00,
2013-12-11 20:35:00,52.8,11.0,30.23,NE,45,3.0,-999.0,19,-99.99,,,0.00,weatherlink.com 1.10,2013-12-12 04:35:00,
2013-12-11 21:03:00,52.9,13.0,30.24,NE,45,5.0,-999.0,20,-99.99,,,0.00,weatherlink.com 1.10,2013-12-12 05:03:00,
2013-12-11 21:35:00,52.5,12.0,30.23,NE,45,4.0,-999.0,20,-99.99,,,0.00,weatherlink.com 1.10,2013-12-12 05:35:00,
2013-12-11 23:18:00,52.6,12.0,30.23,NE,46,4.0,-999.0,20,-99.99,,,0.00,weatherlink.com 1.10,2013-12-12 07:18:00,
2013-12-11 23:33:00,53.1,13.0,30.24,NE,46,5.0,-999.0,20,-99.99,,,0.00,weatherlink.com 1.10,2013-12-12 07:33:00,